Regional Weather Roundup
Issued by NWS

Home | Current Version | Previous Version | Text Only | Print | Product List | Glossary Off
Versions: 1 2 3 4 5 6 7 8 9 10 11 12 13 14 15 16 17 18 19 20 21 22 23 24 25 26 27 28 29 30 31 32 33 34 35 36 37 38 39 40 41 42 43 44 45 46 47 48 49 50

000
ASUS44 KMEG 190710
RWRTN
TENNESSEE HOURLY STATE WEATHER ROUNDUP
NATIONAL WEATHER SERVICE MEMPHIS TN
100 AM CST MON FEB 19 2018

TNZ002-004-019-021-049-052-054-088>092-190800-
WEST TENNESSEE

CITY           SKY/WX    TMP DP  RH WIND       PRES   REMARKS
MEMPHIS INTL   CLOUDY    57  55  93 S8        30.06S
NWS MEMPHIS      N/A     56 N/A N/A MISG        N/A
JACKSON        CLOUDY    57  55  93 S9        30.10R
DYERSBURG      CLOUDY    55  54  96 S8        30.07F
COVINGTON      CLOUDY    55  55 100 S7        30.08R
UNION CITY     CLOUDY    55  54  94 S12       30.07S
BOLIVAR        CLOUDY    55  54  94 SE10      30.09S
PARIS          CLOUDY    55  54  94 S10       30.08F
HUNTINGDON     CLOUDY    57  54  88 S9        30.09S
LEXINGTON      CLOUDY    55  55 100 S10G18    30.12R
SELMER         CLOUDY    55  54  94 S12       30.11S
SAVANNAH       CLOUDY    57  55  94 S8G14     30.12S
$$

TNZ008-025-027-028-033-062-065-066-190800-
NORTH MIDDLE TENNESSEE

CITY           SKY/WX    TMP DP  RH WIND       PRES   REMARKS
NASHVILLE      CLOUDY    58  54  86 S9        30.16R
PORTLAND       CLOUDY    57  52  82 S12G17    30.13R
CLARKSVILLE    CLOUDY    57  51  80 S10       30.11R
SMYRNA         CLOUDY    59  56  89 S9        30.17R
COOKEVILLE     CLOUDY    57  54  88 S5        30.17S
GALLATIN       CLOUDY    59  54  82 VRB5G12   30.18R
CROSSVILLE     CLOUDY    55  54  96 VRB6      30.22R
$$

TNZ061-075-076-078-094-096-097-190800-
SOUTH MIDDLE TENNESSEE

CITY           SKY/WX    TMP DP  RH WIND       PRES   REMARKS
TULLAHOMA      CLOUDY    57  55  94 SE6       30.18R
WINCHESTER     PTCLDY    57  55  94 SE8       30.18F
MCMINNVILLE    CLOUDY    61  57  88 S9        30.18R
COLUMBIA       CLOUDY    57  57 100 S6        30.13F
SHELBYVILLE    CLOUDY    59  55  88 S7G14     30.17S
$$

TNZ017-018-042-046-047-190800-
NORTHEAST TENNESSEE

CITY           SKY/WX    TMP DP  RH WIND       PRES   REMARKS
TRI CITIES     LGT RAIN  56  44  64 S9        30.25S
ELIZABETHTON   CLOUDY    57  41  54 E8G14     30.28S
$$

TNZ012-013-036-069-073-074-190800-
CENTRAL EAST TENNESSEE

CITY           SKY/WX    TMP DP  RH WIND       PRES   REMARKS
KNOXVILLE      CLOUDY    51  47  86 N3        30.23R
OAK RIDGE      CLOUDY    52  46  80 CALM      30.25R
DOWNTOWN KNOXV CLOUDY    52  48  87 CALM      30.25S
GATLINBURG     CLOUDY    50  46  87 NE3       30.25R
MORRISTOWN     CLOUDY    50  45  81 CALM      30.25R
$$

TNZ083-085-099-190800-
SOUTHEAST TENNESSEE

CITY           SKY/WX    TMP DP  RH WIND       PRES   REMARKS
CHATTANOOGA    CLOUDY    58  56  93 CALM      30.24R
$$

SKY/WX REPORTED AS FAIR MEANS FEW OR NO CLOUDS BELOW
12 THOUSAND FEET.





USA.gov is the U.S. government's official web portal to all federal, state and local government web resources and services.